Regional Weather Roundup
Issued by NWS Wakefield, VA

Current Version | Previous Version | Text Only | Print | Product List | Glossary Off
Versions: 1 2 3 4 5 6 7 8 9 10 11 12 13 14 15 16 17 18 19 20 21 22 23 24 25 26 27 28

000
ASUS41 KAKQ 241215
RWRAKQ

REGIONAL WEATHER ROUNDUP
NATIONAL WEATHER SERVICE WAKEFIELD VA
800 AM EDT TUE MAY 24 2022

Note: "fair" indicates few or no clouds below 12,000 feet with no
significant weather and/or obstructions to visibility. * = Denotes
station may not report precipitation (e.g., rain,snow,etc.),
thunder or fog.

VAZ042-051-052>054-056-241300-
NORTHERN VIRGINIA

CITY           SKY/WX    TMP DP  RH WIND       PRES   REMARKS
WASH NATIONAL  CLOUDY    61  57  87 NE7       30.22R
DULLES         LGT RAIN  58  56  93 NE8       30.22R FOG
FORT BELVOIR   CLOUDY    60  58  95 CALM      30.21S
QUANTICO       LGT RAIN  62  58  86 E14       30.21R FOG
FREDERICKSBRG* HVY RAIN N/A N/A N/A NE5       30.18R
STAFFORD*      RAIN      59  57  91 N3        30.24R
WARRENTON      DRIZZLE   57  55  91 N5        30.21R
CULPEPER*      HVY RAIN  56  55  95 N5        30.22R
MANASSAS*      LGT RAIN  58  57  97 N6        30.22R FOG
LEESBURG*      LGT RAIN  55  55 100 NE5       30.24R
WINCHESTER     DRIZZLE   52  52 100 NW5       30.22R
FRONT ROYAL*   CLOUDY    54  52  94 CALM      30.22R
LURAY*         DRIZZLE   54  52  94 N7        30.21S
$$

VAZ048-049-060>072-079>083-241300-
CENTRAL AND SOUTH CENTRAL VIRGINIA

CITY           SKY/WX    TMP DP  RH WIND       PRES   REMARKS
RICHMOND       LGT RAIN  60  59  96 E9        30.17R FOG
CHESTERFIELD*  RAIN      59  59 100 NE10      30.16S
PETERSBURG*    LGT RAIN  60  59  96 NE8       30.15S
HANOVER        HVY RAIN  60  59  96 NE5       30.19R FOG
TAPPAHANNOCK*  RAIN      58  58 100 NE6       30.20R
QUINTON*       CLOUDY    59  59 100 NE5       30.17R
CHARLOTTSVILLE CLOUDY    57  54  89 NE10      30.19S FOG
GORDONSVILLE*  CLOUDY    55  54  94 NE5       30.19S
ORANGE*        RAIN      54  54 100 N7        30.20S
LOUISA*        LGT RAIN  54  54 100 N6        30.20R
BUMPASS*       CLOUDY    58  57  99 NW3       30.19R
FARMVILLE*     RAIN      56  55  99 N9        30.14S
CREWE*         CLOUDY    57  55  91 NE6       30.14R
FORT PICKETT*  CLOUDY    58  58 100 NE10      30.13S FOG
CHASE CITY*    CLOUDY    59  59 100 NE8       30.11R
CLARKSVILLE*   CLOUDY   N/A N/A N/A NE6       30.09R
SOUTH HILL*    CLOUDY    59  57  94 NE3       30.16S
LAWRENCEVILLE* CLOUDY    60  59  97 NE7       30.12S
EMPORIA*       RAIN      60  60  99 N6        30.13
$$

VAZ088>098-241300-
SOUTHEAST VIRGINIA

CITY           SKY/WX    TMP DP  RH WIND       PRES   REMARKS
NORFOLK        CLOUDY    62  60  93 E7        30.14R
VIRGINIA BEACH CLOUDY    66  60  81 E9        30.14R
NORFOLK NAVAL  CLOUDY    65  59  81 E7        30.16R
WEST POINT*    CLOUDY    60  57  91 NE7       30.18R
SALUDA*        CLOUDY    61  57  86 NE7       30.17S
NEWPORT NEWS   LGT RAIN  61  58  90 E10       30.16R
LANGLEY AFB    DRIZZLE   63  63 100 E14       30.14R
FORT EUSTIS    CLOUDY    61  59  94 VRB7      30.16R
WILLIAMSBURG*  CLOUDY    63  63 100 NE3       30.15S
HR EXEC AP*    CLOUDY    62  61  96 E6        30.14S
FRANKLIN*      CLOUDY    62  61  98 E6        30.13S
US460-WAKEFLD  CLOUDY    62  60  93 N3        30.14R
$$

VAZ020-022-025-037-045-241300-
WEST CENTRAL AND SOUTHWEST VIRGINIA

CITY           SKY/WX    TMP DP  RH WIND       PRES   REMARKS
STAUNTON*      CLOUDY    51  51  99 N7        30.23R
WAYNESBORO*    CLOUDY    51  51  99 N3        30.20S
HOT SPRINGS VA RAIN      50  50 100 E12       30.20R VSB<1/4
LYNCHBURG      LGT RAIN  57  54  89 NE10      30.14R FOG
DANVILLE       CLOUDY    58  56  93 NE13      30.09R
SOUTH BOSTON*  CLOUDY    59  58  95 NE6       30.09S
MARTINSVILLE   CLOUDY    56  56 100 N6        30.14R
ROANOKE        LGT RAIN  57  54  89 VRB7      30.17R FOG
BLACKSBURG     CLOUDY    55  55 100 N3        30.18R
DUBLIN*        NOT AVBL
MARION*        CLOUDY    53  53  97 E7        30.18R
HILLSVILLE*    CLOUDY    53  52  97 N6        30.15R FOG
RICHLANDS*     FOG      N/A N/A N/A CALM      30.15R VSB 1/4
WISE*          CLOUDY    55  55 100 CALM      30.17R
ABINGDON*      CLOUDY    57  57 100 E9        30.14R
$$

MDZ021>025-VAZ099-100-241300-
SOUTHERN MARYLAND AND THE DELMARVA PENINSULA

CITY           SKY/WX    TMP DP  RH WIND       PRES   REMARKS
PATUXENT RIVER HVY RAIN  60  55  83 E13       30.21R
BAY BRIDGE APT LGT RAIN  59  59 100 E7        30.22R
LEONARDTOWN    CLOUDY    59  55  88 CALM      30.22R
DOVER          LGT RAIN  60  60 100 NE7       30.20R
GEORGETOWN     LGT RAIN  60  59  96 E7        30.20R
EASTON         LGT RAIN  59  57  94 NE3       30.25R
CAMBRIDGE      NOT AVBL
SALISBURY      RAIN      59  57  93 E7        30.18R FOG
TANGIER        CLOUDY    63  59  86 E13G20    30.17R
OCEAN CITY     RAIN      59  58  96 NE8       30.19R FOG
WALLOPS ISLAND LGT RAIN  61  58  90 E18       30.17F
ACCOMACK*      LGT RAIN  56  55  93 E8G16     30.17R
$$

NCZ012>017-030>032-241300-
NORTH CENTRAL AND EASTERN NORTH CAROLINA

CITY           SKY/WX    TMP DP  RH WIND       PRES   REMARKS
ROANOKE RAPIDS RAIN      61  61 100 E6        30.09S
RALEIGH        CLOUDY    70  68  93 SW6       30.06R
ELIZABETH CITY CLOUDY    67  61  81 E12       30.14R
AHOSKIE*       CLOUDY    63  63 100 E5        30.11R
EDENTON*       CLOUDY    69  68  96 SE10      30.13R
CURRITUCK*     CLOUDY    64  64 100 E8        30.13S
KILL DEVIL HLS CLOUDY    64  63  94 E6        30.12F
MANTEO         CLOUDY    66  63  87 E10       30.13F
CAPE HATTERAS  PTSUNNY   75  69  81 SE10      30.12R
TARBORO*       CLOUDY    66  65  97 E7        30.09S FOG
GOLDSBORO      PTSUNNY   73  71  94 E6        30.04F
WASHINGTON     CLOUDY    68  66  93 S3        30.11S
GREENVILLE     FOG       68  68 100 E3        30.09S VSB 1/4
NEW BERN         N/A     73  72  94 S5        30.10
WILMINGTON     PTSUNNY   78  73  84 S6        30.08S
$$

VAZ048-241300-
ELSEWHERE

CITY           SKY/WX    TMP DP  RH WIND       PRES   REMARKS
HARRISBURG PA  CLOUDY    62  51  67 N3        30.22R
BALTIMORE      CLOUDY    61  56  83 E6        30.21R
ANNAPOLIS      LGT RAIN  61  56  83 E8        30.22R
ANDREWS AFB    DRIZZLE   59  58  97 E6        30.20R
PHILADELPHIA   CLOUDY    63  54  72 E6        30.25R
HENDERSON NC   DRIZZLE   60  60  99 NE6       30.08R
GREENSBORO     LGT RAIN  58  57  97 NE8G17    30.06S FOG
ROCKY MOUNT    LGT RAIN  67  66  97 CALM      30.07S VSB 1
$$

VAZ100-241300-
MARINE

STATION/POSITION TIME  TEMP    WIND        PRES    WAVE   SWELL
                       AIR SEA DIR/SP/G            HT/PER HT/PER
                 (UTC) (F)     (DEG/KT/KT) (MB)    (FT/S) (FT/S)
CAPE MAY NJ      1130   58 60   50/  7/ 12 1022.3F
LEWES DE         1130   59 61   90/ 15/ 17 1022.2S
15NM E FENWICK I 1150   60 62   60/ 14/ 17 1022.6R   3/10   2/10
OCEAN-CITY-INLET 1130   59 59   70/  5/  7 1023.8R
44089 WALLOPS IS 1156      61                N/A     3/ 4
WACHAPREAGUE VA  1130   61 70   80/ 16/ 20 1021.3S
THOMAS POINT MD  1200   59 68   60/ 11/ 12 1024.2R
GOOSES REEF MD   1148   57 68   90/ 12/ 16 1025.3R
COVE POINT MD    1130   59      90/  5/  8 1023.2R
SOLOMONS ISLAND  1130   59 69   80/ 11/ 14 1021.4R
BISHOPS HEAD MD  1130   59 71   80/ 11/ 16 1022.3R
PINEY POINT MD   1130           90/ 12/ 16   N/A
POTOMAC MD       1148   57 68   50/ 10/ 14   N/A
CAMBRIDGE MD     1130   60 72   80/ 13/ 16 1022.4R
LEWISETTA VA     1130   62 71   80/ 10/ 13 1022.3R
RAPPAHANNOCK LGT 1130           50/ 13/ 15 1021.7R
STINGRAY PT      1148   62 70   70/ 16/ 19   N/A
YORK RVR RNG VA  1130   64      90/ 16/ 19   N/A
YORKTOWN VA      1130   65 70   80/ 17/ 19 1020.9R
JAMESTOWN VA     1142   60     100/ 10/ 14   N/A
DOMINION TERM VA 1130   64      50/  2/  6 1020.8R
KIPTOPEKE VA     1130      69  100/  9/ 12   N/A
CHES BAY BRIDGE  1130   62     100/ 13/ 15 1019.9R
CAPE HENRY VA    1130   62      90/ 15/ 18 1021.1R
WILLOUBY STN VA  1130   63     100/ 17/ 19 1020.0S
S CRANEY ISL VA  1130   63      90/  9/ 11 1020.2S
CAPE HENRY BUOY  1156      63                N/A     3/ 5
1ST LANDING BUOY 1142   60     100/ 17/ 19 1021.8F
64NM E OF VA BCH 1150           60/ 10/ 14 1019.9R   4/ 6   2/ 6
DUCK PIER NC     1130   63 63   90/ 10/ 11 1020.1R
44100 DUCK FRF   1126      64                N/A     3/ 5   2/11
44056 DUCK FRF   1156      63                N/A     3/11   2/11
OREGON INLET NC  1130   67 75   80/  9/ 11 1020.0R
HATTERAS NC      1130   74 72  130/  5/  8 1020.1R
DIAMOND SHLS NC  1150      77  120/ 12/ 16 1019.5R
CAPE LOOKOUT NC  1100   74     150/  6/  6 1019.4R
$$



USA.gov is the U.S. government's official web portal to all federal, state and local government web resources and services.